Location: ???????
(55.4362°N, 38.1183°E)
Time: 17:05:57
(UTC+00:00)

Cosmos 2333 Rocket - Pass Details

Date: 30 October 2021
Orbit: 837 x 865 km, 70.8° (Epoch: 04 December)

Event Time Altitude Azimuth Distance (km) Brightness Sun altitude
Rises 15:27:36 0° 186° (S) 3,394 5.5 -13.8°
Reaches altitude 10° 15:30:09 10° 179° (S) 2,467 4.7 -14.2°
Maximum altitude 15:35:24 41° 111° (ESE) 1,218 2.6 -14.9°
Enters shadow 15:39:52 14° 47° (NE) 2,198 3.9 -15.5°
